This is the latest recevied weather packets stored in our database for station/object WX5HOT. If no packets are shown the sender has not sent any weather packets the latest 10 day(s).
| Time | Temp. | Humidity | Pressure | Rain* | Wind** | Luminosity | Snow |
|---|---|---|---|---|---|---|---|
| 1777296555 | 20° C | 99% | 1060.6 hPa | 0 mm | - | 19 W/m² | - |
| 1777296221 | 20° C | 99% | 1060.5 hPa | 0 mm | - | 13 W/m² | - |
| 1777295917 | 20° C | 99% | 1060.4 hPa | 0 mm | - | 15 W/m² | - |
| 1777295614 | 19.44° C | 99% | 1060.3 hPa | 0 mm | - | 16 W/m² | - |
| 1777295312 | 19.44° C | 99% | 1060.2 hPa | 0 mm | - | 22 W/m² | - |
| 1777295010 | 19.44° C | 99% | 1059.9 hPa | 0 mm | - | 25 W/m² | - |
| 1777294707 | 19.44° C | 99% | 1059.7 hPa | 0 mm | - | 46 W/m² | - |
| 1777294401 | 19.44° C | 99% | 1059.4 hPa | 0 mm | - | 47 W/m² | - |
| 1777294099 | 19.44° C | 99% | 1059.5 hPa | 0 mm | - | 25 W/m² | - |
| 1777293796 | 19.44° C | 99% | 1059.2 hPa | 0 mm | - | 34 W/m² | - |
| 1777293496 | 19.44° C | 99% | 1059 hPa | 0 mm | - | 30 W/m² | - |
| 1777293192 | 19.44° C | 99% | 1059 hPa | 0 mm | - | 22 W/m² | - |
| 1777292891 | 19.44° C | 99% | 1058.8 hPa | 0 mm | - | 21 W/m² | - |
| 1777292587 | 19.44° C | 99% | 1058.9 hPa | 0 mm | - | 19 W/m² | - |
| 1777292283 | 19.44° C | 99% | 1058.9 hPa | 0 mm | - | 13 W/m² | - |
| 1777291980 | 19.44° C | 99% | 1059.1 hPa | 0 mm | - | 13 W/m² | - |
| 1777291676 | 19.44° C | 99% | 1058.9 hPa | 0 mm | - | 11 W/m² | - |
| 1777291374 | 19.44° C | 99% | 1059.3 hPa | 0 mm | - | 6 W/m² | - |
| 1777291070 | 19.44° C | 99% | 1059.2 hPa | 0 mm | - | 4 W/m² | - |
| 1777290767 | 19.44° C | 99% | 1059.2 hPa | 0 mm | - | 4 W/m² | - |
| 1777290463 | 19.44° C | 99% | 1059.4 hPa | 0 mm | - | 3 W/m² | - |
| 1777290159 | 19.44° C | 99% | 1059 hPa | 0 mm | - | 2 W/m² | - |
| 1777289856 | 19.44° C | 99% | 1059.3 hPa | 0 mm | - | 1 W/m² | - |
| 1777289552 | 19.44° C | 99% | 1059.1 hPa | 0 mm | - | 1 W/m² | - |
| 1777289247 | 19.44° C | 99% | 1059.4 hPa | 0 mm | - | 0 W/m² | - |
* Rain latest hour (hover to see other rain measurements)
** Current wind speed in m/s (hover to see current wind gust speed)